COSMOS 2456 (730)

Last updated on Wed Dec 10 2025 00:03:19 GMT+0000 (Coordinated Universal Time)

1 36111U 09070A 25343.24160716 -.00000017 00000+0 00000+0 0 9999 2 36111 64.8981 77.4578 0002838 298.5783 37.1692 2.13103359124373
UTC large
Height (km)
Speed (km/s)
/
Latitude / Longitude
Inclination (degrees)
Orbital Period (minutes)
Azimuth
Elevation
Range (km)
Doppler Factor

Next 0 passes for location: London (51.5072 / 0.1276)

Sorry there are no passes over London.